Location: Noyers
(47.2770°N, 1.4032°E)
Time: 23:09:03
(UTC+00:00)

DELTA 2 R/B (1) - Pass Details

Date: 15 May 2026
Orbit: 787 x 799 km, 39.6° (Epoch: 11 June)

Event Time Altitude Azimuth Distance (km) Brightness Sun altitude
Rises 20:42:21 0° 259° (WSW) 3,289 7.3 -11.4°
Reaches altitude 10° 20:45:00 10° 251° (WSW) 2,357 6.4 -11.7°
Maximum altitude 20:50:04 37° 185° (S) 1,213 4.2 -12.3°
Enters shadow 20:53:40 18° 128° (SE) 1,879 4.9 -12.7°
